User: anonymous   Login
Location: Unspecified
(0.0000°N, 0.0000°E)
Time: 03:21:46
(UTC+00:00)
Language:

STARLINK-6046 - Orbit

View from above orbital plane
View from above orbital plane
View from above satellite
View from above satellite

Ground track
Ground track

The orbit is defined by the following mean orbital elements,

1 56792U          26145.44470001 +.00000000 +00000-0 -43543-4 0 00004
2 56792  69.9987 151.0809 0003761 270.3071  89.7657 14.98334673    00
Epoch (UTC): 25 May 2026 10:40:22
Eccentricity: 0.0003761
inclination: 69.9987°
perigee height: 569 km
apogee height: 575 km
right ascension of ascending node: 151.0809°
argument of perigee: 270.3071°
revolutions per day: 14.98334673
mean anomaly at epoch: 89.7657°

The dashed part of the orbit path shows where the satellite is in the earth's shadow,  

DLR